Location: Hope
(40.9110°N, 74.9680°W)
Time: 02:00:40
(UTC-04:00)

VELOX 1 - Pass Details

Date: 03 August 2021
Orbit: 626 x 643 km, 98.3° (Epoch: 19 September)

Event Time Altitude Azimuth Distance (km) Brightness Sun altitude
Rises 03:29:00 0° 136° (SE) 2,929 ? -22.9°
Reaches altitude 10° 03:31:28 10° 123° (ESE) 2,028 ? -22.6°
Maximum altitude 03:35:06 26° 67° (ENE) 1,273 ? -22.2°
Drops below altitude 10° 03:38:46 10° 12° (NNE) 2,045 ? -21.8°
Sets 03:41:16 0° 360° (N) 2,961 ? -21.5°
